Thessaloniki, Greece

3:09 AM EET on March 24, 2017 (GMT +0200)
Makedonia

Weather History for LGTS - November, 2012

Change the Weather History Date:

Saturday, November 17, 2012

  Actual Average Record
Temperature  
Mean Temperature 56 °F -  
Max Temperature 62 °F 55 °F 68 °F (2015)
Min Temperature 51 °F 40 °F 30 °F (2011)
Degree Days  
Heating Degree Days 8    
Growing Degree Days 6 (Base 50)    
Moisture  
Dew Point 47 °F    
Average Humidity 69    
Maximum Humidity 82    
Minimum Humidity 49    
Precipitation  
Precipitation 0.00 in 0.07 in - ()
Sea Level Pressure  
Sea Level Pressure 30.14 in    
Wind  
Wind Speed 3 mph ()    
Max Wind Speed 10 mph    
Max Gust Speed -    
Visibility 6.1 miles    
Events      
Averages and records for this station are not official NWS values.
T = Trace of Precipitation, MM = Missing Value Source: Averaged Metar Reports

Daily Weather History Graph

Daily Weather History Graph

Search for Another Location

Airport or City:

Trip Planner

Search our weather history database for the weather conditions in past years. The results will help you decide how hot, cold, wet, or windy it might be!

Date:

Astronomy

Nov. 17, 2012 Rise Set
Actual Time 7:17 AM EET 5:08 PM EET
Civil Twilight 6:47 AM EET 5:38 PM EET
Nautical Twilight 6:14 AM EET 6:11 PM EET
Astronomical Twilight 5:42 AM EET 6:43 PM EET
Moon 10:47 AM EET (11/17) 8:56 PM EET (11/17)
Length of Visible Light 10h 50m
Length of Day
9h 51m
Waxing Crescent, 17% of the Moon is Illuminated
Nov 17
Waxing Crescent
Nov 20
First Quarter
Nov 28
Full
Dec 6
Last Quarter
Dec 13
New

Hourly Weather History & Observations

Time (EET) Temp. Dew Point Humidity Pressure Visibility Wind Dir Wind Speed Gust Speed Precip Events Conditions
12:20 AM 55.4 °F 48.2 °F 77% 30.18 in 6.2 mi Calm Calm - N/A   Scattered Clouds
12:50 AM 55.4 °F 48.2 °F 77% 30.18 in 6.2 mi Calm Calm - N/A   Scattered Clouds
1:20 AM 55.4 °F 48.2 °F 77% 30.18 in 6.2 mi Calm Calm - N/A   Scattered Clouds
1:50 AM 55.4 °F 48.2 °F 77% 30.18 in 6.2 mi Calm Calm - N/A   Scattered Clouds
2:00 AM 55 °F 49 °F 73% 30.18 in 6 mi Calm Calm - -   Mostly Cloudy
2:20 AM 55.4 °F 50.0 °F 82% 30.18 in 6.2 mi Variable 3.5 mph - N/A   Scattered Clouds
2:50 AM 55.4 °F 48.2 °F 77% 30.18 in 6.2 mi Calm Calm - N/A   Scattered Clouds
3:50 AM 57.2 °F 48.2 °F 72% 30.15 in 6.2 mi Variable 3.5 mph - N/A   Scattered Clouds
4:20 AM 57.2 °F 48.2 °F 72% 30.15 in 6.2 mi Variable 3.5 mph - N/A   Scattered Clouds
4:50 AM 57.2 °F 46.4 °F 67% 30.15 in 6.2 mi ESE 5.8 mph - N/A   Scattered Clouds
5:20 AM 57.2 °F 46.4 °F 67% 30.15 in 6.2 mi ESE 5.8 mph - N/A   Scattered Clouds
5:50 AM 57.2 °F 48.2 °F 72% 30.15 in 6.2 mi WNW 5.8 mph - N/A   Scattered Clouds
6:20 AM 57.2 °F 48.2 °F 72% 30.15 in 6.2 mi WNW 5.8 mph - N/A   Scattered Clouds
6:50 AM 59.0 °F 46.4 °F 63% 30.15 in 6.2 mi Variable 3.5 mph - N/A   Scattered Clouds
7:20 AM 57.2 °F 46.4 °F 67% 30.15 in 6.2 mi Variable 3.5 mph - N/A   Mostly Cloudy
7:50 AM 57.2 °F 46.4 °F 67% 30.15 in 6.2 mi Variable 3.5 mph - N/A   Mostly Cloudy
8:00 AM 58 °F 47 °F 57% 30.17 in 6 mi 3.5 mph - -   Mostly Cloudy
8:20 AM 57.2 °F 46.4 °F 67% 30.15 in 6.2 mi Variable 3.5 mph - N/A   Mostly Cloudy
8:50 AM 57.2 °F 46.4 °F 67% 30.15 in 6.2 mi Variable 3.5 mph - N/A   Mostly Cloudy
9:20 AM 60.8 °F 46.4 °F 59% 30.15 in 6.2 mi ESE 9.2 mph - N/A   Mostly Cloudy
9:50 AM 59.0 °F 46.4 °F 63% 30.18 in 6.2 mi ESE 6.9 mph - N/A   Mostly Cloudy
10:20 AM 60.8 °F 46.4 °F 59% 30.18 in 6.2 mi ESE 4.6 mph - N/A   Mostly Cloudy
10:50 AM 60.8 °F 44.6 °F 55% 30.18 in 6.2 mi Variable 3.5 mph - N/A   Mostly Cloudy
11:20 AM 62.6 °F 46.4 °F 55% 30.15 in 6.2 mi Variable 2.3 mph - N/A   Mostly Cloudy
11:50 AM 62.6 °F 44.6 °F 52% 30.15 in 6.2 mi Variable 3.5 mph - N/A   Mostly Cloudy
12:20 PM 60.8 °F 46.4 °F 59% 30.15 in 6.2 mi Variable 3.5 mph - N/A   Mostly Cloudy
12:50 PM 60.8 °F 48.2 °F 63% 30.15 in 6.2 mi West 8.1 mph - N/A   Mostly Cloudy
1:20 PM 60.8 °F 46.4 °F 59% 30.12 in 6.2 mi Variable 3.5 mph - N/A   Mostly Cloudy
1:50 PM 60.8 °F 46.4 °F 59% 30.12 in 6.2 mi Variable 3.5 mph - N/A   Mostly Cloudy
2:00 PM 61 °F 47 °F 49% 30.14 in 6 mi 3.5 mph - -   Partly Cloudy
2:20 PM 60.8 °F 46.4 °F 59% 30.12 in 6.2 mi Variable 3.5 mph - N/A   Mostly Cloudy
2:50 PM 60.8 °F 46.4 °F 59% 30.12 in 6.2 mi Variable 3.5 mph - N/A   Mostly Cloudy
3:20 PM 60.8 °F 46.4 °F 59% 30.12 in 6.2 mi Variable 3.5 mph - N/A   Mostly Cloudy
3:50 PM 60.8 °F 46.4 °F 59% 30.12 in 6.2 mi Variable 3.5 mph - N/A   Mostly Cloudy
4:20 PM 60.8 °F 50.0 °F 68% 30.12 in 6.2 mi West 4.6 mph - N/A   Mostly Cloudy
4:50 PM 60.8 °F 50.0 °F 68% 30.12 in 6.2 mi West 10.4 mph - N/A   Mostly Cloudy
5:20 PM 59.0 °F 50.0 °F 72% 30.12 in 5.0 mi WNW 10.4 mph - N/A   Mostly Cloudy
5:50 PM 59.0 °F 50.0 °F 72% 30.12 in 5.0 mi WNW 9.2 mph - N/A   Mostly Cloudy
6:20 PM 59.0 °F 50.0 °F 72% 30.12 in 5.0 mi WNW 8.1 mph - N/A   Mostly Cloudy
6:50 PM 59.0 °F 50.0 °F 72% 30.12 in 6.2 mi NW 8.1 mph - N/A   Scattered Clouds
7:20 PM 57.2 °F 50.0 °F 77% 30.12 in 6.2 mi Calm Calm - N/A   Scattered Clouds
7:50 PM 53.6 °F 46.4 °F 77% 30.12 in 6.2 mi East 4.6 mph - N/A   Scattered Clouds
8:00 PM 54 °F 47 °F 68% 30.14 in 6 mi East 4.6 mph - -   Scattered Clouds
8:20 PM 53.6 °F 48.2 °F 82% 30.12 in 6.2 mi ESE 5.8 mph - N/A   Scattered Clouds
8:50 PM 53.6 °F 48.2 °F 82% 30.12 in 6.2 mi ESE 5.8 mph - N/A   Scattered Clouds
9:20 PM 53.6 °F 48.2 °F 82% 30.12 in 6.2 mi ESE 5.8 mph - N/A   Scattered Clouds
9:50 PM 53.6 °F 48.2 °F 82% 30.12 in 6.2 mi SSE 4.6 mph - N/A   Scattered Clouds
10:20 PM 51.8 °F 46.4 °F 82% 30.12 in 6.2 mi Calm Calm - N/A   Scattered Clouds
10:50 PM 51.8 °F 46.4 °F 82% 30.12 in 6.2 mi Calm Calm - N/A   Scattered Clouds
11:20 PM 51.8 °F 46.4 °F 82% 30.12 in 6.2 mi Calm Calm - N/A   Scattered Clouds
11:50 PM 53.6 °F 46.4 °F 77% 30.12 in 6.2 mi Calm Calm - N/A   Mostly Cloudy